FW4261 Weather Reports


Display with metric or nautical units.
time (UTC)temp
F
wind
direction
speed
MPH
gust
MPH
rain 1hr
in
rain 24hr
in
rain mn
in
humidity
%
barometer
mb
20260507014742 75 145 0.0 1.0 0.00 0.00 0.00 59 1017.3
20260507014218 75 234 1.0 2.0 0.00 0.00 0.00 58 1017.4
20260507013732 74 298 0.0 1.0 0.00 0.00 0.00 59 1017.5
20260507013232 74 261 1.0 2.0 0.00 0.00 0.00 59 1017.5
20260507012745 74 257 1.0 2.0 0.00 0.00 0.00 61 1017.5
20260507012221 74 273 1.0 2.0 0.00 0.00 0.00 59 1017.5
20260507011751 75 253 1.0 2.0 0.00 0.00 0.00 58 1017.4
20260507011218 74 270 1.0 2.0 0.00 0.00 0.00 61 1017.4
20260507010718 74 262 1.0 2.0 0.00 0.00 0.00 62 1017.4
20260507010218 74 275 1.0 2.0 0.00 0.00 0.00 59 1017.4
20260507005718 74 273 1.0 2.0 0.00 0.00 0.00 59 1017.3
20260507005218 73 243 1.0 2.0 0.00 0.00 0.00 59 1017.3
20260507004718 71 258 1.0 3.0 0.00 0.00 0.00 63 1017.3
20260507004241 71 78 1.0 2.0 0.00 0.00 0.00 64 1017.3
20260507003739 70 253 1.0 2.0 0.00 0.00 0.00 68 1017.4
20260507003220 0 299 1.0 1.0 0.00 0.00 0.00
20260507002320 72 159 1.0 3.0 0.00 0.00 0.00 64 1017.4
20260507001819 71 258 1.0 2.0 0.00 0.00 0.00 64 1017.4
20260507001319 71 249 1.0 3.0 0.00 0.00 0.00 66 1017.3
20260507000820 71 260 2.0 3.0 0.00 0.00 0.00 64 1017.3
20260507000321 72 270 1.0 2.0 0.00 0.00 0.00 63 1017.3
20260506235841 71 271 2.0 3.0 0.00 0.00 0.00 64 1017.3
20260506235317 70 260 2.0 4.0 0.00 0.00 0.00 66 1017.3
20260506234816 70 243 1.0 3.0 0.00 0.00 0.00 67 1017.4
20260506234316 70 268 1.0 3.0 0.00 0.00 0.00 66 1017.4
20260506233816 70 254 2.0 3.0 0.00 0.00 0.00 67 1017.4
20260506233320 70 256 2.0 3.0 0.00 0.00 0.00 66 1017.4
20260506232819 71 271 2.0 4.0 0.00 0.00 0.00 64 1017.5
20260506232320 71 269 1.0 3.0 0.00 0.00 0.00 64 1017.5
20260506231820 71 318 1.0 3.0 0.00 0.00 0.00 65 1017.5
20260506231405 71 277 2.0 3.0 0.00 0.00 0.00 64 1017.5
20260506230817 71 232 2.0 4.0 0.00 0.00 0.00 62 1017.6
20260506230338 71 244 2.0 4.0 0.00 0.00 0.00 62 1017.7
20260506225817 71 272 1.0 3.0 0.00 0.00 0.00 63 1017.7
20260506225317 71 264 1.0 5.0 0.00 0.00 0.00 65 1017.7
20260506224819 71 263 1.0 2.0 0.00 0.00 0.00 63 1017.8
20260506224324 0 92 0.0 0.0 0.00 0.00 0.00
20260506223720 71 214 2.0 3.0 0.00 0.00 0.00 62 1017.9
20260506223217 72 320 2.0 4.0 0.00 0.00 0.00 61 1017.9
20260506222738 71 320 1.0 4.0 0.00 0.00 0.00 60 1017.9
20260506222218 71 261 2.0 3.0 0.00 0.00 0.00 62 1018.0
20260506221800 70 263 1.0 4.0 0.00 0.00 0.00 64 1018.1
20260506221238 70 281 2.0 4.0 0.00 0.00 0.00 63 1018.2
20260506220740 0 262 1.0 2.0 0.00 0.00 0.00